2021-062E (49047 NORAD) Tracking and Keplerian Element Data

This shows tracking and keplerian element data for the satellite.

Feedback or suggestion? Click here.




ElementValue
Catalog49047
Name2021-062E
Epoch Orbit194
Epoch Day214.77088969
Epoch Year2021
RAAN217.1872
Inclination98.7051
Eccentricity0.000393
Argument of Perigee206.9035
Mean Anonmoly153.1958
Mean Motion14.27102879
Decay Rate-2E-08
L11 49047U 21062E 21214.77088969 -.00000002 00000-0 17401-4 0 9999
L22 49047 98.7051 217.1872 0003930 206.9035 153.1958 14.27102879 1941

Live tracking and technical data element details for 2021-062E (NORAD 49047). 2021-062E can be tracked NOW for your location showing map with azimuth and elevation plus other details from your city location.

Track the satellite on the map from your city or location and see movement details for azimuth, elevation, latitude, longitude, range, height, and movement on the map or in text.







IsCatalogInMostPopularTable: catalog: 49047, numindb: 21
Update: records affected: 1



GetName: 49047 2021-062E

Hit Count: updated at: Tue, 19 Oct 2021 09:47:50 GMT